GW1277 Weather Reports


Display with metric or nautical units.
time (UTC)temp
F
wind
direction
speed
MPH
gust
MPH
rain 1hr
in
rain 24hr
in
rain mn
in
humidity
%
barometer
mb
20260505062015 50 165 0.0 1.0 0.00 0.00 0.00 81 1009.3
20260505061540 50 0 0.0 1.0 0.00 0.00 0.00 79 1009.3
20260505061017 51 0 0.0 3.0 0.00 0.00 0.00 77 1009.3
20260505060521 52 0 0.0 3.0 0.00 0.00 0.00 77 1009.2
20260505060036 52 166 1.0 4.0 0.00 0.00 0.00 76 1009.4
20260505055516 52 0 1.0 4.0 0.00 0.00 0.00 77 1009.3
20260505055015 52 110 0.0 3.0 0.00 0.00 0.00 79 1009.2
20260505054538 51 110 1.0 3.0 0.00 0.00 0.00 79 1009.2
20260505054016 52 105 1.0 3.0 0.00 0.00 0.00 77 1009.2
20260505053520 53 105 1.0 3.0 0.00 0.00 0.00 75 1009.1
20260505053034 54 0 0.0 4.0 0.00 0.00 0.00 75 1009.1
20260505052516 55 235 0.0 4.0 0.00 0.00 0.00 75 1009.0
20260505052016 55 178 1.0 4.0 0.00 0.00 0.00 73 1009.0
20260505051532 55 119 0.0 2.0 0.00 0.00 0.00 72 1009.0
20260505051016 55 0 0.0 3.0 0.00 0.00 0.00 72 1008.9
20260505050521 55 119 0.0 3.0 0.00 0.00 0.00 72 1008.8
20260505041549 61 132 1.0 4.0 0.00 0.00 0.00 58 1008.1
20260505041017 61 144 2.0 4.0 0.00 0.00 0.00 59 1008.0
20260505040516 61 115 0.0 4.0 0.00 0.00 0.00 61 1007.9
20260505040048 61 144 1.0 3.0 0.00 0.00 0.00 61 1007.7
20260505035517 61 0 1.0 3.0 0.00 0.00 0.00 61 1007.7
20260505035016 62 144 1.0 3.0 0.00 0.00 0.00 60 1007.7
20260505034535 62 144 0.0 3.0 0.00 0.00 0.00 60 1007.6
20260505034016 63 0 0.0 3.0 0.00 0.00 0.00 59 1007.6
20260505033517 65 144 1.0 3.0 0.00 0.00 0.00 58 1007.5
20260505033034 65 144 0.0 3.0 0.00 0.00 0.00 55 1007.4
20260505032516 66 144 0.0 4.0 0.00 0.00 0.00 56 1007.3
20260505032019 67 0 1.0 4.0 0.00 0.00 0.00 53 1007.1
20260505031541 68 144 2.0 4.0 0.00 0.00 0.00 50 1007.2
20260505031015 68 144 0.0 4.0 0.00 0.00 0.00 51 1007.0
20260505030517 68 168 1.0 4.0 0.00 0.00 0.00 50 1007.0
20260505030035 68 0 0.0 3.0 0.00 0.00 0.00 52 1006.9
20260505025517 69 122 1.0 4.0 0.00 0.00 0.00 53 1007.0
20260505025021 71 90 2.0 4.0 0.00 0.00 0.00 55 1006.9
20260505024533 72 0 0.0 1.0 0.00 0.00 0.00 44 1006.9
20260505024016 73 0 0.0 2.0 0.00 0.00 0.00 42 1006.8
20260505023516 73 186 0.0 2.0 0.00 0.00 0.00 42 1006.8
20260505023031 74 0 0.0 2.0 0.00 0.00 0.00 40 1006.8
20260505022516 75 0 0.0 3.0 0.00 0.00 0.00 42 1006.8
20260505022016 75 0 1.0 4.0 0.00 0.00 0.00 35 1006.8
20260505021536 75 0 2.0 6.0 0.00 0.00 0.00 35 1006.8
20260505021016 75 155 3.0 9.0 0.00 0.00 0.00 37 1006.8
20260505020517 75 138 4.0 9.0 0.00 0.00 0.00 38 1006.8
20260505020035 74 132 6.0 9.0 0.00 0.00 0.00 36 1006.8
20260505015517 74 112 6.0 11.0 0.00 0.00 0.00 37 1006.7
20260505015018 75 108 7.0 11.0 0.00 0.00 0.00 37 1006.7
20260505014548 76 100 6.0 12.0 0.00 0.00 0.00 35 1006.7
20260505014016 77 75 7.0 12.0 0.00 0.00 0.00 33 1006.7
20260505013516 78 73 4.0 9.0 0.00 0.00 0.00 32 1006.6
20260505013033 79 0 0.0 4.0 0.00 0.00 0.00 39 1006.6
20260505012516 79 122 1.0 4.0 0.00 0.00 0.00 35 1006.5
20260505012016 79 101 0.0 3.0 0.00 0.00 0.00 33 1006.5
20260505011539 79 0 0.0 3.0 0.00 0.00 0.00 32 1006.6
20260505011017 79 344 1.0 3.0 0.00 0.00 0.00 28 1006.6
20260505010516 79 0 0.0 3.0 0.00 0.00 0.00 35 1006.5
20260505010036 79 348 1.0 2.0 0.00 0.00 0.00 43 1006.6
20260505005516 79 118 0.0 2.0 0.00 0.00 0.00 40 1006.6
20260505005017 78 118 1.0 2.0 0.00 0.00 0.00 32 1006.6
20260505004538 78 0 0.0 2.0 0.00 0.00 0.00 32 1006.6
20260505004016 78 0 0.0 4.0 0.00 0.00 0.00 28 1006.6
20260505003515 77 118 1.0 4.0 0.00 0.00 0.00 28 1006.6
20260505003040 76 5 1.0 4.0 0.00 0.00 0.00 36 1006.6
20260505002516 76 53 2.0 8.0 0.00 0.00 0.00 44 1006.7
20260505002017 76 92 2.0 8.0 0.00 0.00 0.00 42 1006.7
20260505001532 77 112 5.0 11.0 0.00 0.00 0.00 37 1006.7
20260505001017 77 131 6.0 12.0 0.00 0.00 0.00 33 1006.7
20260505000519 76 98 8.0 12.0 0.00 0.00 0.00 37 1006.8
20260505000048 78 97 8.0 12.0 0.00 0.00 0.00 32 1006.7
20260504235516 79 91 7.0 12.0 0.00 0.00 0.00 35 1006.7
20260504235018 78 93 9.0 12.0 0.00 0.00 0.00 35 1006.6
20260504234542 78 19 4.0 11.0 0.00 0.00 0.00 36 1006.6
20260504234016 78 92 7.0 11.0 0.00 0.00 0.00 33 1006.6
20260504233516 80 113 7.0 11.0 0.00 0.00 0.00 31 1006.7
20260504233048 81 63 3.0 8.0 0.00 0.00 0.00 31 1006.7
20260504232517 81 352 5.0 13.0 0.00 0.00 0.00 27 1006.7
20260504232017 80 335 9.0 13.0 0.00 0.00 0.00 28 1006.8
20260504231534 80 329 6.0 10.0 0.00 0.00 0.00 34 1006.8
20260504231016 81 333 3.0 10.0 0.00 0.00 0.00 26 1006.8
20260504230516 81 360 5.0 12.0 0.00 0.00 0.00 24 1006.9
20260504230035 80 342 5.0 12.0 0.00 0.00 0.00 25 1006.9
20260504225516 80 352 7.0 14.0 0.00 0.00 0.00 30 1006.9
20260504225016 80 352 6.0 14.0 0.00 0.00 0.00 26 1006.9
20260504224540 80 299 8.0 17.0 0.00 0.00 0.00 24 1006.9
20260504224016 80 5 4.0 17.0 0.00 0.00 0.00 24 1007.0
20260504223516 80 35 9.0 17.0 0.00 0.00 0.00 27 1007.0
20260504223053 80 342 7.0 14.0 0.00 0.00 0.00 24 1007.1
20260504222516 80 320 8.0 14.0 0.00 0.00 0.00 25 1007.1
20260504222020 80 306 9.0 15.0 0.00 0.00 0.00 25 1007.2
20260504221538 80 321 10.0 15.0 0.00 0.00 0.00 29 1007.3
20260504221018 80 302 7.0 12.0 0.00 0.00 0.00 27 1007.2
20260504220517 80 310 8.0 12.0 0.00 0.00 0.00 27 1007.4
20260504220034 80 254 7.0 11.0 0.00 0.00 0.00 27 1007.3
20260504215517 80 340 5.0 11.0 0.00 0.00 0.00 24 1007.4
20260504215015 80 327 4.0 12.0 0.00 0.00 0.00 29 1007.4
20260504214533 80 47 4.0 12.0 0.00 0.00 0.00 25 1007.5
20260504214016 80 10 6.0 13.0 0.00 0.00 0.00 31 1007.5
20260504213516 80 331 4.0 13.0 0.00 0.00 0.00 27 1007.6
20260504213046 80 352 7.0 13.0 0.00 0.00 0.00 27 1007.6
20260504212520 80 311 8.0 13.0 0.00 0.00 0.00 29 1007.6
20260504212018 80 296 3.0 10.0 0.00 0.00 0.00 27 1007.5
20260504211536 80 360 5.0 11.0 0.00 0.00 0.00 25 1007.6
20260504211017 80 265 6.0 11.0 0.00 0.00 0.00 24 1007.6
20260504210517 80 272 1.0 9.0 0.00 0.00 0.00 28 1007.6
20260504210038 79 32 2.0 9.0 0.00 0.00 0.00 29 1007.6
20260504205517 79 350 3.0 14.0 0.00 0.00 0.00 28 1007.6
20260504205017 79 325 7.0 14.0 0.00 0.00 0.00 25 1007.7
20260504204543 79 281 7.0 13.0 0.00 0.00 0.00 30 1007.7
20260504204021 79 0 0.0 10.0 0.00 0.00 0.00 26 1007.8
20260504203514 79 346 3.0 11.0 0.00 0.00 0.00 28 1007.8
20260504203044 78 352 5.0 13.0 0.00 0.00 0.00 28 1007.8
20260504202516 78 334 6.0 13.0 0.00 0.00 0.00 25 1007.9
20260504202017 79 317 5.0 10.0 0.00 0.00 0.00 29 1007.8
20260504201535 78 31 2.0 9.0 0.00 0.00 0.00 28 1007.9
20260504201020 78 19 3.0 11.0 0.00 0.00 0.00 28 1007.9
20260504200514 78 350 3.0 11.0 0.00 0.00 0.00 26 1007.9
20260504200034 78 352 3.0 10.0 0.00 0.00 0.00 29 1008.0
20260504195516 78 360 1.0 7.0 0.00 0.00 0.00 30 1008.0
20260504195017 78 12 2.0 7.0 0.00 0.00 0.00 32 1007.9
20260504194535 77 223 2.0 11.0 0.00 0.00 0.00 30 1007.9
20260504194018 77 305 4.0 13.0 0.00 0.00 0.00 30 1008.0
20260504193518 77 333 10.0 13.0 0.00 0.00 0.00 33 1008.0
20260504193031 77 290 4.0 9.0 0.00 0.00 0.00 33 1008.0
20260504192516 77 319 5.0 9.0 0.00 0.00 0.00 33 1008.0
20260504192016 76 263 3.0 10.0 0.00 0.00 0.00 32 1008.0
20260504191537 76 298 3.0 10.0 0.00 0.00 0.00 31 1008.0
20260504191017 76 324 6.0 11.0 0.00 0.00 0.00 33 1008.0
20260504190516 76 331 4.0 11.0 0.00 0.00 0.00 30 1008.2
20260504190037 76 14 4.0 10.0 0.00 0.00 0.00 37 1008.1
20260504185514 76 348 5.0 11.0 0.00 0.00 0.00 38 1008.1
20260504185015 76 331 4.0 13.0 0.00 0.00 0.00 34 1008.2
20260504184530 75 333 9.0 13.0 0.00 0.00 0.00 37 1008.3
20260504184015 75 336 6.0 12.0 0.00 0.00 0.00 38 1008.3
20260504183517 75 336 8.0 12.0 0.00 0.00 0.00 37 1008.5
20260504183034 74 315 6.0 12.0 0.00 0.00 0.00 38 1008.5
20260504182516 74 317 6.0 11.0 0.00 0.00 0.00 39 1008.6
20260504182015 74 338 7.0 11.0 0.00 0.00 0.00 40 1008.6
20260504181542 74 360 6.0 13.0 0.00 0.00 0.00 39 1008.5
20260504181015 73 302 6.0 13.0 0.00 0.00 0.00 39 1008.5
20260504180515 72 304 3.0 9.0 0.00 0.00 0.00 39 1008.7
20260504180033 72 324 4.0 11.0 0.00 0.00 0.00 40 1008.8
20260504175515 71 324 6.0 11.0 0.00 0.00 0.00 42 1008.9
20260504175015 71 334 6.0 11.0 0.00 0.00 0.00 41 1008.8
20260504174530 70 352 4.0 10.0 0.00 0.00 0.00 45 1008.9
20260504174015 70 305 5.0 10.0 0.00 0.00 0.00 43 1009.0
20260504173515 70 330 4.0 9.0 0.00 0.00 0.00 43 1008.9
20260504173032 69 319 4.0 8.0 0.00 0.00 0.00 42 1009.1
20260504172514 69 349 4.0 8.0 0.00 0.00 0.00 43 1009.2
20260504172017 68 326 1.0 5.0 0.00 0.00 0.00 44 1009.2
20260504171535 68 319 2.0 6.0 0.00 0.00 0.00 46 1009.2
20260504171016 68 351 3.0 6.0 0.00 0.00 0.00 45 1009.2
20260504170517 67 341 3.0 9.0 0.00 0.00 0.00 44 1009.2
20260504151015 53 323 4.0 5.0 0.00 0.00 0.00 72 1010.0
20260504150513 53 330 3.0 5.0 0.00 0.00 0.00 74 1010.0
20260504141015 45 321 2.0 5.0 0.00 0.00 0.00 86 1009.9
20260504140512 44 336 3.0 5.0 0.00 0.00 0.00 87 1010.0
20260504130512 38 0 0.0 0.0 0.00 0.00 0.00 91 1009.8
20260504110516 41 0 0.0 1.0 0.00 0.00 0.00 89 1009.1
20260504100517 41 145 1.0 3.0 0.00 0.00 0.00 87 1008.9
20260504081538 43 76 0.0 2.0 0.00 0.00 0.00 85 1008.7
20260504081016 43 76 0.0 3.0 0.00 0.00 0.00 85 1008.7
20260504080516 43 0 1.0 4.0 0.00 0.00 0.00 85 1008.8